This is the latest recevied weather packets stored in our database for station/object K1AWR. If no packets are shown the sender has not sent any weather packets the latest 10 day(s).
| Time | Temp. | Humidity | Pressure | Rain* | Wind** | Luminosity | Snow |
|---|---|---|---|---|---|---|---|
| 1788619862 | 22.78° C | 65% | 1011 hPa | 0 mm | - | 41 W/m² | - |
| 1788619557 | 22.78° C | 67% | 1010.9 hPa | 0 mm | - | 34 W/m² | - |
| 1788619256 | 22.78° C | 66% | 1010.8 hPa | 0 mm | - | 33 W/m² | - |
| 1788618955 | 22.22° C | 69% | 1010.9 hPa | 0 mm | - | 70 W/m² | - |
| 1788618651 | 22.22° C | 67% | 1010.9 hPa | 0 mm | - | 45 W/m² | - |
| 1788618350 | 22.78° C | 67% | 1011 hPa | 0 mm | - | 36 W/m² | - |
| 1788618050 | 22.22° C | 72% | 1010.8 hPa | 0 mm | - | 65 W/m² | - |
| 1788617744 | 22.22° C | 71% | 1011.2 hPa | 0 mm | - | 46 W/m² | - |
| 1788617441 | 21.67° C | 71% | 1011 hPa | 0 mm | - | 205 W/m² | - |
| 1788617142 | 21.67° C | 72% | 1011 hPa | 0 mm | - | 70 W/m² | - |
| 1788616841 | 21.67° C | 72% | 1011 hPa | 0 mm | - | 36 W/m² | - |
| 1788616537 | 21.67° C | 72% | 1011.1 hPa | 0 mm | - | 31 W/m² | - |
| 1788616237 | 21.67° C | 71% | 1011.3 hPa | 0 mm | - | 34 W/m² | - |
| 1788615937 | 21.67° C | 72% | 1011.2 hPa | 0 mm | - | 42 W/m² | - |
| 1788615668 | 21.67° C | 74% | 1011.3 hPa | 0 mm | - | 35 W/m² | - |
| 1788615331 | 21.67° C | 73% | 1011.2 hPa | 0 mm | - | 30 W/m² | - |
| 1788615030 | 21.11° C | 75% | 1011 hPa | 0 mm | - | 28 W/m² | - |
| 1788614731 | 21.11° C | 74% | 1011.1 hPa | 0 mm | - | 42 W/m² | - |
| 1788614426 | 21.11° C | 75% | 1011.1 hPa | 0 mm | - | 46 W/m² | - |
| 1788614121 | 20.56° C | 77% | 1011.3 hPa | 0 mm | - | 87 W/m² | - |
| 1788613816 | 20.56° C | 76% | 1011.3 hPa | 0 mm | - | 83 W/m² | - |
| 1788613515 | 20.56° C | 77% | 1011.2 hPa | 0 mm | - | 29 W/m² | - |
| 1788613211 | 20° C | 76% | 1011.2 hPa | 0 mm | - | 25 W/m² | - |
| 1788612905 | 20° C | 76% | 1011.2 hPa | 0 mm | - | 194 W/m² | - |
| 1788612601 | 20.56° C | 76% | 1011.3 hPa | 0 mm | - | 263 W/m² | - |
* Rain latest hour (hover to see other rain measurements)
** Current wind speed in m/s (hover to see current wind gust speed)